Location: Bennemühlen
(52.5740°N, 9.7135°E)
Time: 01:36:53
(UTC+00:00)

Cosmos 1821 Rocket - Pass Details

Date: 19 May 2025
Orbit: 943 x 1004 km, 82.9° (Epoch: 23 June)

Event Time Altitude Azimuth Distance (km) Brightness Sun altitude
Rises 20:26:36 0° 351° (N) 3,648 8.1 -8.5°
Reaches altitude 10° 20:29:15 10° 358° (N) 2,691 7.2 -8.8°
Maximum altitude 20:35:08 46° 71° (ENE) 1,251 4.5 -9.3°
Enters shadow 20:40:28 12° 143° (SE) 2,489 5.4 -9.8°
